Selawik, AK

5:23 AM AKDT on October 17, 2017 (GMT -0800)
Selawik

Weather History for PASK - May, 2013

Change the Weather History Date:

Saturday, May 4, 2013

  Actual Average Record
Temperature  
Mean Temperature 8 °F -  
Max Temperature 12 °F 31 °F 51 °F (2004)
Min Temperature 3 °F 18 °F -7 °F (2001)
Degree Days  
Heating Degree Days 56    
Moisture  
Dew Point 6 °F    
Average Humidity 84    
Maximum Humidity 92    
Minimum Humidity 73    
Precipitation  
Precipitation 0.00 in - - ()
Sea Level Pressure  
Sea Level Pressure 30.14 in    
Wind  
Wind Speed 14 mph (WSW)    
Max Wind Speed 17 mph    
Max Gust Speed 22 mph    
Visibility 7 miles    
Events      
Averages and records for this station are not official NWS values.
T = Trace of Precipitation, MM = Missing Value Source: NWS Daily Summary

Daily Weather History Graph

Daily Weather History Graph

Search for Another Location

Airport or City:

Trip Planner

Search our weather history database for the weather conditions in past years. The results will help you decide how hot, cold, wet, or windy it might be!

Date:

Astronomy

May. 04, 2013 Rise Set
Actual Time 5:37 AM AKDT 11:39 PM AKDT
Civil Twilight 3:56 AM AKDT 1:25 AM AKDT
Nautical Twilight Sun does not rise Sun does not rise
Astronomical Twilight Sun does not rise Sun does not rise
Moon 5:00 AM AKDT (5/4) 4:41 PM AKDT (5/4)
Length of Visible Light 21h 29m
Length of Day
18h 02m
Waning Crescent, 25% of the Moon is Illuminated
May 4
Waning Crescent
May 9
New
May 17
First Quarter
May 24
Full
May 31
Last Quarter

Hourly Weather History & Observations

Time (AKDT) Temp. Windchill Dew Point Humidity Pressure Visibility Wind Dir Wind Speed Gust Speed Precip Events Conditions
12:16 AM 10.4 °F -7.2 °F 8.6 °F 92% 30.16 in 4.0 mi West 17.3 mph 20.7 mph N/A   Clear
12:36 AM 8.6 °F -9.5 °F 5.0 °F 85% 30.16 in 1.0 mi West 17.3 mph - N/A   Mostly Cloudy
12:56 AM 8.6 °F -8.3 °F 5.0 °F 85% 30.16 in 5.0 mi West 15.0 mph - N/A   Partly Cloudy
1:16 AM 8.6 °F -8.3 °F 6.8 °F 92% 30.16 in 10.0 mi West 15.0 mph - N/A   Scattered Clouds
1:36 AM 10.4 °F -6.0 °F 8.6 °F 92% 30.16 in 10.0 mi West 15.0 mph - N/A   Overcast
1:56 AM 12.2 °F -3.1 °F 10.4 °F 92% 30.16 in 3.0 mi West 13.8 mph - N/A   Overcast
2:16 AM 12.2 °F -3.1 °F 8.6 °F 85% 30.16 in 5.0 mi West 13.8 mph - N/A   Overcast
2:36 AM 12.2 °F -3.7 °F 8.6 °F 85% 30.16 in 10.0 mi West 15.0 mph 20.7 mph N/A   Overcast
2:56 AM 12.2 °F -3.7 °F 8.6 °F 85% 30.16 in 7.0 mi West 15.0 mph 21.9 mph N/A   Overcast
3:16 AM 12.2 °F -3.1 °F 8.6 °F 85% 30.16 in 6.0 mi West 13.8 mph - N/A   Overcast
3:36 AM 10.4 °F -4.1 °F 6.8 °F 85% 30.16 in 10.0 mi West 11.5 mph - N/A   Overcast
3:56 AM 12.2 °F -3.1 °F 8.6 °F 85% 30.16 in 6.0 mi West 13.8 mph - N/A   Overcast
4:16 AM 10.4 °F -5.4 °F 8.6 °F 92% 30.16 in 6.0 mi West 13.8 mph - N/A   Overcast
4:36 AM 10.4 °F -5.4 °F 8.6 °F 92% 30.16 in 7.0 mi West 13.8 mph - N/A   Overcast
4:56 AM 10.4 °F -4.8 °F 8.6 °F 92% 30.16 in 5.0 mi West 12.7 mph - N/A   Overcast
5:16 AM 10.4 °F -4.8 °F 6.8 °F 85% 30.15 in 5.0 mi West 12.7 mph - N/A   Overcast
5:36 AM 10.4 °F -4.1 °F 6.8 °F 85% 30.15 in 8.0 mi West 11.5 mph - N/A   Mostly Cloudy
5:56 AM 8.6 °F -6.3 °F 5.0 °F 85% 30.15 in 10.0 mi West 11.5 mph - N/A   Clear
6:16 AM 8.6 °F -5.5 °F 6.8 °F 92% 30.15 in 10.0 mi West 10.4 mph - N/A   Mostly Cloudy
6:36 AM 8.6 °F -6.3 °F 5.0 °F 85% 30.15 in 10.0 mi West 11.5 mph - N/A   Overcast
6:56 AM 10.4 °F -4.1 °F 8.6 °F 92% 30.15 in 1.2 mi West 11.5 mph 18.4 mph N/A   Overcast
7:16 AM 10.4 °F -5.4 °F 6.8 °F 85% 30.14 in 1.0 mi West 13.8 mph - N/A   Overcast
7:36 AM 10.4 °F -4.1 °F 6.8 °F 85% 30.15 in 1.2 mi West 11.5 mph - N/A   Overcast
7:56 AM 10.4 °F -4.1 °F 6.8 °F 85% 30.14 in 1.5 mi West 11.5 mph - N/A   Overcast
8:16 AM 8.6 °F -7.0 °F 6.8 °F 92% 30.14 in 6.0 mi West 12.7 mph - N/A   Scattered Clouds
8:36 AM 8.6 °F -7.7 °F 5.0 °F 85% 30.13 in 10.0 mi West 13.8 mph - N/A   Clear
8:56 AM 8.6 °F -8.3 °F 6.8 °F 92% 30.14 in 10.0 mi West 15.0 mph - N/A   Mostly Cloudy
9:16 AM 10.4 °F -4.8 °F 5.0 °F 79% 30.14 in 5.0 mi West 12.7 mph - N/A   Overcast
9:36 AM 10.4 °F -5.4 °F 6.8 °F 85% 30.14 in 1.5 mi West 13.8 mph - N/A   Overcast
9:56 AM 10.4 °F -6.0 °F 5.0 °F 79% 30.13 in 8.0 mi West 15.0 mph 20.7 mph N/A   Overcast
10:16 AM 10.4 °F -6.0 °F 6.8 °F 85% 30.13 in 3.0 mi West 15.0 mph - N/A   Overcast
10:36 AM 10.4 °F -6.0 °F 6.8 °F 85% 30.13 in 7.0 mi West 15.0 mph 19.6 mph N/A   Overcast
10:56 AM 10.4 °F -4.8 °F 6.8 °F 85% 30.13 in 3.0 mi West 12.7 mph - N/A   Overcast
11:16 AM 10.4 °F -6.0 °F 6.8 °F 85% 30.13 in 1.5 mi West 15.0 mph - N/A   Overcast
11:36 AM 10.4 °F -6.0 °F 6.8 °F 85% 30.13 in 1.8 mi WSW 15.0 mph - N/A   Overcast
11:56 AM 10.4 °F -5.4 °F 6.8 °F 85% 30.12 in 2.0 mi WSW 13.8 mph - N/A   Overcast
12:16 PM 10.4 °F -6.0 °F 6.8 °F 85% 30.13 in 2.5 mi West 15.0 mph - N/A   Overcast
12:36 PM 10.4 °F -6.0 °F 6.8 °F 85% 30.13 in 2.0 mi WSW 15.0 mph - N/A   Overcast
12:56 PM 10.4 °F -6.6 °F 6.8 °F 85% 30.13 in 5.0 mi West 16.1 mph - N/A   Overcast
1:16 PM 10.4 °F -6.6 °F 6.8 °F 85% 30.14 in 5.0 mi WSW 16.1 mph - N/A   Overcast
1:36 PM 10.4 °F -6.0 °F 6.8 °F 85% 30.14 in 7.0 mi WSW 15.0 mph 19.6 mph N/A   Overcast
1:56 PM 10.4 °F -5.4 °F 5.0 °F 79% 30.14 in 3.0 mi West 13.8 mph 21.9 mph N/A   Overcast
2:16 PM 10.4 °F -7.2 °F 6.8 °F 85% 30.14 in 3.0 mi West 17.3 mph - N/A   Overcast
2:36 PM 10.4 °F -6.0 °F 6.8 °F 85% 30.14 in 7.0 mi West 15.0 mph - N/A   Overcast
2:56 PM 12.2 °F -3.7 °F 6.8 °F 79% 30.14 in 6.0 mi WSW 15.0 mph 19.6 mph N/A   Overcast
3:16 PM 12.2 °F -2.5 °F 6.8 °F 79% 30.13 in 10.0 mi WSW 12.7 mph 19.6 mph N/A   Overcast
3:36 PM 12.2 °F -1.8 °F 5.0 °F 73% 30.13 in 5.0 mi WSW 11.5 mph - N/A   Overcast
3:56 PM 12.2 °F -4.3 °F 6.8 °F 79% 30.13 in 10.0 mi WSW 16.1 mph - N/A   Overcast
4:16 PM 10.4 °F -6.6 °F 6.8 °F 85% 30.13 in 10.0 mi WSW 16.1 mph - N/A   Overcast
4:36 PM 12.2 °F -4.3 °F 6.8 °F 79% 30.13 in 10.0 mi WSW 16.1 mph 19.6 mph N/A   Overcast
4:56 PM 10.4 °F -6.0 °F 6.8 °F 85% 30.13 in 10.0 mi West 15.0 mph 19.6 mph N/A   Scattered Clouds
5:16 PM 10.4 °F -5.4 °F 6.8 °F 85% 30.12 in 10.0 mi WSW 13.8 mph 17.3 mph N/A   Mostly Cloudy
5:36 PM 10.4 °F -7.2 °F 6.8 °F 85% 30.13 in 10.0 mi WSW 17.3 mph - N/A   Scattered Clouds
5:56 PM 10.4 °F -6.6 °F 6.8 °F 85% 30.13 in 10.0 mi WSW 16.1 mph 19.6 mph N/A   Mostly Cloudy
6:16 PM 12.2 °F -4.3 °F 6.8 °F 79% 30.13 in 10.0 mi WSW 16.1 mph - N/A   Mostly Cloudy
6:36 PM 12.2 °F -3.7 °F 6.8 °F 79% 30.13 in 9.0 mi West 15.0 mph 20.7 mph N/A   Partly Cloudy
6:56 PM 12.2 °F -3.1 °F 6.8 °F 79% 30.12 in 10.0 mi West 13.8 mph 19.6 mph N/A   Clear
7:16 PM 12.2 °F -4.8 °F 6.8 °F 79% 30.12 in 10.0 mi West 17.3 mph 21.9 mph N/A   Clear
7:36 PM 12.2 °F -4.3 °F 6.8 °F 79% 30.12 in 10.0 mi WSW 16.1 mph - N/A   Clear
7:56 PM 10.4 °F -4.8 °F 6.8 °F 85% 30.13 in 10.0 mi WSW 12.7 mph 17.3 mph N/A   Scattered Clouds
8:16 PM 10.4 °F -6.0 °F 5.0 °F 79% 30.12 in 10.0 mi WSW 15.0 mph - N/A   Overcast
8:36 PM 10.4 °F -4.1 °F 5.0 °F 79% 30.13 in 10.0 mi WSW 11.5 mph - N/A   Mostly Cloudy
8:56 PM 8.6 °F -6.3 °F 3.2 °F 79% 30.13 in 10.0 mi WSW 11.5 mph - N/A   Partly Cloudy
9:16 PM 8.6 °F -7.7 °F 3.2 °F 79% 30.13 in 10.0 mi WSW 13.8 mph 17.3 mph N/A   Clear
9:36 PM 8.6 °F -6.3 °F 3.2 °F 79% 30.14 in 10.0 mi WSW 11.5 mph - N/A   Clear
9:56 PM 8.6 °F -5.5 °F 3.2 °F 79% 30.14 in 10.0 mi WSW 10.4 mph - N/A   Clear
10:16 PM 6.8 °F -7.8 °F 3.2 °F 85% 30.14 in 10.0 mi WSW 10.4 mph - N/A   Clear
10:36 PM 6.8 °F -10.0 °F 1.4 °F 79% 30.13 in 10.0 mi WSW 13.8 mph - N/A   Clear
10:56 PM 6.8 °F -10.0 °F 1.4 °F 79% 30.13 in 10.0 mi WSW 13.8 mph - N/A   Clear
11:16 PM 6.8 °F -8.6 °F 1.4 °F 79% 30.15 in 10.0 mi WSW 11.5 mph - N/A   Clear
11:36 PM 5.0 °F -10.8 °F -0.4 °F 78% 30.15 in 10.0 mi West 11.5 mph - N/A   Clear
11:56 PM 3.2 °F -12.2 °F -0.4 °F 85% 30.15 in 10.0 mi WSW 10.4 mph - N/A   Clear